Location: Deep South Regional Star Gaze
(30.9929°N, 90.9586°W)
Time: 20:02:58
(UTC-05:00)

Daily predictions for brighter satellites

Satellite Brightness Start Highest point End
(mag) Time Altitude Azimuth Time Altitude Azimuth Time Altitude Azimuth
Cosmos 2184 Rocket 4.0 19:52:05 10° S 19:58:13 79° E 20:04:23 10° N
Landsat 4 4.5 20:00:06 10° N 20:03:49 58° WNW 20:07:29 10° SSW
NOSS 2-1 (E) 3.9 20:00:50 10° SW 20:04:25 58° WNW 20:08:08 10° NNE
Resurs 01 Rocket 3.4 20:02:51 10° ESE 20:05:28 16° ENE 20:08:04 10° NNE
SJ-6B 3.4 20:05:14 10° SE 20:09:02 40° ENE 20:12:47 10° N
Haruka 3.6 19:59:40 10° W 20:12:08 78° SSW 20:15:53 11° ESE
deb Centaur AC-2 4.0 20:08:56 10° W 20:13:14 80° S 20:17:41 11° E
Cosmos 1300 4.2 20:12:02 10° SSW 20:15:39 41° W 20:19:17 10° N
Cosmos 1939 Rocket 4.2 20:13:06 10° ESE 20:15:52 20° ENE 20:18:46 10° NNE
NOSS 3-3 (A) 3.9 20:12:08 10° SSW 20:18:01 89° WNW 20:24:24 10° NNE
NOSS 3-3 (C) 3.9 20:12:15 10° SSW 20:18:07 90° W 20:24:30 10° NNE
Cosmos 2341 Rocket 4.5 20:12:27 10° SSE 20:18:16 39° E 20:24:05 10° NNE
NOSS 0 Rocket 4.2 20:13:30 10° S 20:19:18 45° ESE 20:25:09 10° NE
Cosmos 1980 4.0 20:20:50 10° S 20:26:07 42° ESE 20:31:26 10° NE
Cosmos 494 Rocket 4.1 20:24:03 10° NNW 20:29:16 78° WSW 20:34:29 10° S
USA 267 4.4 20:29:19 10° E 20:33:42 19° ESE 20:38:04 10° SSE
Cosmos 1666 Rocket 3.7 20:30:18 10° N 20:34:41 54° E 20:39:00 10° SSE
FREGAT/IRIS 4.5 20:32:46 10° SSW 20:35:24 30° W 20:38:04 10° NNW
GPS 2-05 Rocket1 3.8 20:32:33 10° W 20:35:41 35° SSW 20:37:37 18° SSE
Cosmos 2333 Rocket 2.2 20:31:11 10° SSW 20:36:52 88° WNW 20:42:33 10° NNE
ERS-2 2.1 20:34:32 12° SSE 20:37:53 64° ENE 20:41:32 10° N
Resurs 1-3 4.2 20:35:47 18° SE 20:38:36 38° ENE 20:42:39 10° N
Cosmos 1151 Rocket 3.7 20:35:40 14° SSE 20:38:46 31° E 20:42:33 10° NNE
CZ-2D R/B 3.3 20:35:12 10° S 20:38:58 78° W 20:42:47 10° NNW
Cosmos 1455 2.1 20:35:24 10° S 20:39:09 61° E 20:42:57 10° NNE
Meteor 2-21 Rocket 4.4 20:33:50 10° S 20:39:55 77° E 20:46:05 10° N
Meteor 1-27 4.2 20:34:26 10° S 20:40:07 65° E 20:45:45 10° NNE
USA 186 1.3 20:40:40 40° ENE 20:40:40 40° ENE 20:42:46 10° N
COSMOS 2428 4.0 20:36:41 10° SW 20:42:06 44° WNW 20:47:34 10° N
SL-8 Rocket 4.4 20:37:51 10° SSE 20:43:39 40° E 20:49:27 10° NNE
Sich 1 2.9 20:40:24 10° N 20:44:40 82° E 20:48:56 10° S
Cosmos 1844 Rocket 2.6 20:40:19 10° NNW 20:46:00 80° ENE 20:50:46 15° SSE
Envisat 3.2 20:43:17 10° S 20:48:21 72° WSW 20:53:26 10° NNW
YAOGAN 6 2.5 20:48:33 23° SSE 20:50:35 66° ENE 20:54:11 10° N
Cosmos 2219 Rocket 3.0 20:45:53 10° SW 20:51:24 54° WNW 20:56:57 10° N
Cosmos 1892 2.6 20:48:29 10° N 20:52:22 83° E 20:55:08 18° S
Cosmos 1844 3.7 20:47:10 10° NNW 20:52:52 69° ENE 20:56:42 21° SSE
Cosmos 2237 Rocket 2.1 20:47:51 10° S 20:53:25 71° ESE 20:59:01 10° NNE
Cosmos 2251 Rocket 3.5 20:48:40 10° NNW 20:54:04 86° WSW 20:58:38 14° SSE
SJ-11-01 4.5 20:53:31 27° SE 20:55:47 50° ENE 21:00:17 10° N
Cosmos 2056 Rocket 4.1 20:57:10 23° SSE 20:59:49 36° E 21:04:43 10° NE
SAR-Lupe-3 4.4 20:56:33 10° NNE 21:00:08 84° ESE 21:03:36 11° S
Genesis I 4.2 21:01:07 10° N 21:04:47 31° ENE 21:05:02 31° ENE
Cosmos 1633 Rocket 3.2 21:02:22 10° N 21:06:42 74° W 21:09:49 19° S
Cosmos 2098 Rocket 3.7 21:07:13 37° E 21:07:16 37° E 21:11:11 10° NNE
NOAA 11 4.4 21:05:46 32° SE 21:08:03 53° ENE 21:13:23 10° N
Cosmos 2278 Rocket 2.8 21:03:20 10° N 21:08:34 37° ENE 21:09:51 33° E
Nadezhda 3 Rocket 4.3 21:03:07 10° N 21:09:24 71° W 21:15:42 10° S
Cosmos 1515 Rocket 3.5 21:07:54 10° S 21:12:17 87° W 21:16:46 10° N
Cosmos 1624 Rocket 4.0 21:13:55 25° S 21:16:47 57° ESE 21:21:51 10° NNE
Cosmos 2228 Rocket 3.1 21:13:14 11° S 21:17:23 76° W 21:21:47 10° N
Sakura Rocket 2.8 21:16:30 10° W 21:21:05 64° S 21:21:08 64° S
ATLAS 2A CENTAUR R/B 4.1 21:02:04 10° WSW 21:22:54 55° SSE 21:27:52 34° ESE
ASTRO E2 3.1 21:22:47 10° WSW 21:26:03 52° SW 21:26:03 52° SW
Cosmos 1825 3.0 21:27:10 10° N 21:29:47 40° NNE 21:29:47 40° NNE
Spot 2 Rocket 3.6 21:29:14 38° S 21:31:11 75° WSW 21:36:17 10° NNW
OAO 2 Rocket 3.2 21:27:58 10° WNW 21:33:10 81° SSW 21:33:39 72° SE
ATLAS CENTAUR R/B 4.5 21:32:13 10° W 21:34:05 13° NW 21:35:58 10° NNW
ATLAS 2AS CENTAUR R/B 2.8 21:29:38 10° NNW 21:37:25 84° ENE 21:39:44 48° SE
Resurs 01 Rocket 3.0 21:39:36 24° SSW 21:41:35 36° W 21:45:41 10° NNW
SL-16 R/B 2.0 21:43:11 70° SE 21:43:36 74° ESE 21:49:15 10° NNE
GEOS 3 Rocket 3.9 21:39:38 10° NE 21:43:44 52° ENE 21:43:44 52° ENE
Cosmos 2344 3.5 21:39:40 10° S 21:47:18 58° ESE 21:54:53 10° NE
ARGOS 3.3 21:48:16 56° NE 21:48:16 56° NE 21:53:01 10° N
Cosmos 1470 Rocket 4.5 21:45:39 10° NNW 21:49:52 44° W 21:50:30 41° WSW
OAO 3 Copernicus 4.4 21:47:00 10° W 21:51:49 72° NW 21:51:49 72° NW
Cosmos 1727 Rocket 3.8 21:52:15 10° N 21:58:14 72° ENE 21:58:14 72° ENE
Meteor 2-10 Rocket 4.1 22:01:52 45° SW 22:03:25 63° W 22:09:11 10° N
NOSS 3-4 (A) 4.3 22:00:58 10° NNW 22:07:47 44° NE 22:07:53 44° ENE
NOSS 3-4 (C) 4.4 22:01:04 10° NNW 22:07:53 44° NE 22:07:59 44° ENE
ERS-1 Rocket 4.0 22:10:08 38° N 22:10:08 38° N 22:13:19 10° N
H-2A R/B 2.9 22:17:10 43° N 22:17:10 43° N 22:20:30 10° N
USA 267 3.2 22:10:28 10° NE 22:17:01 84° NW 22:23:33 10° SW
Terra 4.4 22:48:17 14° N 22:48:17 14° N 22:48:58 10° N
Cosmos 2278 Rocket 4.1 22:48:00 10° NW 22:51:44 22° W 22:51:44 22° W
